Regional Weather Roundup
Issued by NWS Northern Indiana

Home | Current Version | Previous Version | Text Only | Print | Product List | Glossary Off
Versions: 1 2 3 4 5 6 7 8 9 10 11 12 13 14 15 16 17 18 19 20 21 22 23 24 25 26 27 28 29 30 31 32 33 34 35 36 37 38 39 40 41 42 43 44 45 46 47 48 49 50

000
ASUS43 KIWX 142100
RWRIWX

KIWX WEATHER ROUNDUP
NATIONAL WEATHER SERVICE NORTHERN INDIANA
400 PM EST THU DEC 14 2017

NOTE: "FAIR" INDICATES FEW OR NO CLOUDS BELOW 12,000 FEET WITH NO
SIGNIFICANT WEATHER AND/OR OBSTRUCTIONS TO VISIBILITY.

* THESE STATIONS ARE NOT UNDER NWS QUALITY CONTROL. THEY ALSO MAY NOT
  REPORT WEATHER SUCH AS PRECIPITATION OR FOG.

INZ001>027-142200-
NORTHERN INDIANA

CITY           SKY/WX    TMP DP  RH WIND       PRES   REMARKS
GARY*          PTSUNNY   30  12  47 W7        30.05S WCI  23
MICHIGAN CITY* FLURRIES  25  19  80 S5        30.05R WCI  19
LAPORTE*       CLOUDY    23  15  72 S3        30.05R
KNOX*          CLOUDY    27  14  59 CALM      30.05S
SOUTH BEND     CLOUDY    22  13  68 S7        30.05R WCI  13
ELKHART*       CLOUDY    21   9  58 CALM      30.05R
GOSHEN         CLOUDY    21   9  59 SW5       30.04R WCI  15
MONTICELLO*    CLOUDY    27  13  54 CALM      30.05R
ROCHESTER*     CLOUDY    28  14  54 CALM      30.05R
WARSAW*        CLOUDY    23  10  58 W5        30.04S WCI  17
AUBURN*        CLOUDY    23   9  54 CALM      30.03S
FORT WAYNE     PTSUNNY   23  10  57 SW3       30.04S
PERU/GRISSOM   CLOUDY    26  13  56 CALM      30.04R

$$
INZ028>050-142200-
CENTRAL INDIANA

CITY           SKY/WX    TMP DP  RH WIND       PRES   REMARKS
LAFAYETTE      MOSUNNY   30  14  51 CALM      30.05R
KOKOMO*        CLOUDY    28  14  55 CALM      30.05R
MUNCIE*        PTSUNNY   28  11  48 NE5       30.03R WCI  23
INDIANAPOLIS   CLOUDY    29   9  43 NE3       30.04R

$$
MIZ043>046-050>051-056>058-064>065-071>073-077>080-142200-
SOUTHWEST LOWER MICHIGAN

CITY           SKY/WX    TMP DP  RH WIND       PRES   REMARKS
BATTLE CREEK   CLOUDY    20  12  71 SW7       30.01S WCI  11
BENTON HARBOR  PTSUNNY   23  12  62 S9        30.04R WCI  13
COLDWATER*     CLOUDY    18   7  61 SW3       30.02R
HILLSDALE*     CLOUDY    19   9  63 CALM      30.00R
HOLLAND        LGT SNOW  22  16  78 S7        30.02F WCI  13
GRAND RAPIDS   LGT SNOW  20  15  81 SW6       30.01S WCI  12
KALAMAZOO      CLOUDY    21  11  65 S5        30.02R WCI  15
STURGIS*       CLOUDY    20  11  67 W3        30.03R
THREE RIVERS*  CLOUDY    22  11  64 S6        30.04R WCI  14

$$
OHZ001>008-015>018-024>025-142200-
NORTHWEST OHIO

CITY           SKY/WX    TMP DP  RH WIND       PRES   REMARKS
DEFIANCE       PTCLDY    19   7  59 CALM      30.05R
FINDLAY        CLOUDY    18   7  62 SW5       30.03F WCI  11
TOLEDO EXPRESS PTCLDY    21   8  57 NW5       30.04R WCI  15
TOLEDO METCALF CLOUDY    20   8  60 NW6       30.05R WCI  12
LIMA           CLOUDY    21  12  68 CALM      30.02S

$$
AND FOR LAKE MICHIGAN COASTAL AND OPEN LAKE BUOY OBSERVATIONS

STATION/POSITION TEMP    WIND        PRES    VSBY  WAVE
                 AIR SEA DIR/SP/G                  HT/PER
                 (F)     (DEG/KT/KT) (MB)    (MI)  (FT/S)
CALUMET HARBOR    27     350/  7/ 10 1016.5
SAINT JOSEPH      25     180/  2/  7 1017.3

$$
&&




USA.gov is the U.S. government's official web portal to all federal, state and local government web resources and services.